DIW YSSY-YMAV

Flight info

Callsign DIW
Flight time N/A
Altitude 36000
Route TESAT H65 LEECE Q29 ML W15 AV
Aircraft A310/H-SDFGHIM1RTUWXY/LB1

Departure

Time 2026-05-04 09:49
Airport Sydney Kingsford Smith International Airport (YSSY)

Arrival

Time N/A
Airport Melbourne Avalon International Airport (YMAV)
Time Latitude Longitude Altitude Speed Heading
2026-05-04 09:08 -33.94339 151.18033 36 ft 0 kts 167°
2026-05-04 09:29 -33.94338 151.18033 36 ft 2 kts 166°
2026-05-04 09:29 -33.94289 151.18019 35 ft 2 kts 147°
2026-05-04 09:29 -33.94285 151.18010 35 ft 2 kts 143°
2026-05-04 09:29 -33.94264 151.18002 34 ft 4 kts 171°
2026-05-04 09:30 -33.94253 151.18006 35 ft 2 kts 247°
2026-05-04 09:30 -33.94249 151.18019 36 ft 2 kts 253°
2026-05-04 09:30 -33.94246 151.18030 36 ft 0 kts 254°
2026-05-04 09:38 -33.94248 151.18023 36 ft 4 kts 254°
2026-05-04 09:38 -33.94267 151.17943 36 ft 15 kts 254°
2026-05-04 09:38 -33.94372 151.17899 35 ft 22 kts 170°
2026-05-04 09:38 -33.94547 151.17889 36 ft 28 kts 174°
2026-05-04 09:39 -33.94763 151.17949 36 ft 36 kts 164°
2026-05-04 09:39 -33.95008 151.18012 36 ft 36 kts 168°
2026-05-04 09:39 -33.95170 151.18031 36 ft 15 kts 214°
2026-05-04 09:39 -33.95213 151.17896 36 ft 9 kts 257°
2026-05-04 09:40 -33.95214 151.17892 36 ft 0 kts 258°
2026-05-04 09:40 -33.95220 151.17854 35 ft 17 kts 258°
2026-05-04 09:40 -33.95267 151.17636 35 ft 30 kts 236°
2026-05-04 09:40 -33.95435 151.17608 35 ft 23 kts 166°
2026-05-04 09:41 -33.95585 151.17645 36 ft 22 kts 169°
2026-05-04 09:42 -33.96434 151.17902 36 ft 3 kts 112°
2026-05-04 09:43 -33.96436 151.17928 36 ft 3 kts 89°
2026-05-04 09:43 -33.96436 151.17930 36 ft 0 kts 88°
2026-05-04 09:46 -33.96351 151.18047 35 ft 5 kts 345°
2026-05-04 09:46 -33.96123 151.17986 33 ft 69 kts 347°
2026-05-04 09:46 -33.95423 151.17808 34 ft 135 kts 348°
2026-05-04 09:47 -33.94326 151.17549 54 ft 188 kts 351°
2026-05-04 09:47 -33.92962 151.17224 430 ft 219 kts 348°
2026-05-04 09:49 -33.85684 151.04136 4978 ft 325 kts 304°
2026-05-04 09:49 -33.84469 151.01737 4993 ft 340 kts 300°
2026-05-04 09:49 -33.83487 150.99267 4965 ft 310 kts 294°
2026-05-04 09:51 -33.79869 150.86848 8682 ft 235 kts 294°
2026-05-04 09:51 -33.79295 150.84994 9499 ft 238 kts 294°
2026-05-04 09:51 -33.78713 150.83115 10256 ft 241 kts 294°
2026-05-04 09:51 -33.78125 150.81215 10962 ft 244 kts 292°
2026-05-04 09:52 -33.77897 150.79178 11693 ft 253 kts 266°
2026-05-04 09:52 -33.78538 150.77162 12383 ft 268 kts 239°
2026-05-04 09:52 -33.79957 150.75626 13027 ft 286 kts 213°
2026-05-04 09:52 -33.81897 150.74936 13663 ft 301 kts 186°
2026-05-04 09:53 -33.83992 150.75286 14245 ft 311 kts 160°
2026-05-04 09:53 -33.85922 150.76566 14662 ft 324 kts 146°
2026-05-04 09:53 -33.87792 150.78183 15121 ft 336 kts 144°
2026-05-04 09:53 -33.89670 150.79862 15650 ft 347 kts 143°
2026-05-04 09:54 -33.91646 150.81642 15968 ft 362 kts 143°
2026-05-04 09:54 -33.93699 150.83492 16369 ft 374 kts 143°
2026-05-04 09:54 -33.95805 150.85393 16924 ft 381 kts 143°
2026-05-04 09:54 -33.97937 150.87321 17548 ft 386 kts 143°
2026-05-04 09:55 -34.00095 150.89276 18187 ft 390 kts 143°
2026-05-04 09:55 -34.02276 150.91259 18735 ft 395 kts 143°
2026-05-04 09:55 -34.04477 150.93269 19305 ft 399 kts 143°
2026-05-04 09:55 -34.06696 150.95303 19815 ft 403 kts 143°
2026-05-04 09:56 -34.08942 150.97370 20355 ft 408 kts 143°
2026-05-04 09:56 -34.11203 150.99459 20893 ft 411 kts 143°
2026-05-04 09:56 -34.13483 151.01571 21414 ft 416 kts 144°
2026-05-04 09:56 -34.15805 151.03731 21936 ft 420 kts 144°
2026-05-04 09:57 -34.18095 151.05870 22429 ft 425 kts 144°
2026-05-04 09:57 -34.20477 151.08017 22896 ft 429 kts 151°
2026-05-04 09:57 -34.23241 151.09309 23186 ft 426 kts 176°
2026-05-04 09:57 -34.26164 151.09284 23494 ft 418 kts 199°
2026-05-04 09:58 -34.28793 151.07962 23820 ft 404 kts 223°
2026-05-04 09:58 -34.30804 151.05662 24067 ft 398 kts 237°
2026-05-04 09:58 -34.32630 151.03069 24132 ft 414 kts 235°
2026-05-04 10:00 -34.49371 150.86269 26546 ft 460 kts 226°
2026-05-04 10:00 -34.51878 150.83847 27021 ft 461 kts 226°
2026-05-04 10:02 -34.65823 150.63626 28033 ft 446 kts 241°
2026-05-04 10:04 -34.78550 150.42497 31546 ft 435 kts 242°
2026-05-04 10:04 -34.80306 150.39576 32055 ft 432 kts 242°
2026-05-04 10:04 -34.82070 150.36621 32520 ft 430 kts 242°
2026-05-04 10:04 -34.83825 150.33694 33082 ft 426 kts 242°
2026-05-04 10:05 -34.85572 150.30793 33635 ft 423 kts 242°
2026-05-04 10:05 -34.87316 150.27915 34135 ft 420 kts 242°
2026-05-04 10:05 -34.89049 150.25061 34564 ft 417 kts 242°
2026-05-04 10:05 -34.90756 150.22205 34883 ft 416 kts 243°
2026-05-04 10:06 -34.92438 150.19346 35213 ft 415 kts 243°
2026-05-04 10:06 -34.94141 150.16501 35516 ft 415 kts 242°
2026-05-04 10:06 -34.95835 150.13640 35737 ft 416 kts 243°
2026-05-04 10:08 -35.06060 149.96343 36065 ft 421 kts 243°
2026-05-04 10:08 -35.07758 149.93436 36063 ft 421 kts 243°
2026-05-04 10:08 -35.11150 149.87651 36065 ft 422 kts 242°
2026-05-04 10:09 -35.14568 149.81832 36067 ft 421 kts 243°
2026-05-04 10:09 -35.17998 149.76012 36070 ft 422 kts 243°
2026-05-04 10:10 -35.21420 149.70180 36072 ft 422 kts 243°
2026-05-04 10:10 -35.24829 149.64340 36063 ft 422 kts 243°
2026-05-04 10:11 -35.28249 149.58503 36084 ft 422 kts 243°
2026-05-04 10:11 -35.31656 149.52649 36075 ft 422 kts 243°
2026-05-04 10:12 -35.35065 149.46827 36089 ft 422 kts 243°
2026-05-04 10:12 -35.38477 149.40967 36089 ft 422 kts 243°
2026-05-04 10:13 -35.41892 149.35111 36089 ft 423 kts 243°
2026-05-04 10:13 -35.45313 149.29249 36100 ft 423 kts 243°
2026-05-04 10:14 -35.48733 149.23389 36092 ft 423 kts 243°
2026-05-04 10:16 -35.61729 149.00837 36089 ft 422 kts 243°
2026-05-04 10:16 -35.65679 148.93952 36084 ft 422 kts 243°
2026-05-04 10:17 -35.68482 148.89054 36086 ft 421 kts 243°
2026-05-04 10:19 -35.82066 148.65678 36061 ft 419 kts 241°
2026-05-04 10:19 -35.85526 148.59925 36102 ft 418 kts 245°
2026-05-04 10:20 -35.88584 148.53806 36088 ft 424 kts 246°
2026-05-04 10:20 -35.91906 148.47627 36086 ft 439 kts 243°
2026-05-04 10:21 -35.95450 148.41451 36090 ft 441 kts 243°
2026-05-04 10:21 -35.98937 148.35225 36093 ft 441 kts 244°
2026-05-04 10:22 -36.04178 148.25866 36089 ft 442 kts 243°